Location: �clusier
(49.9361°N, 2.7869°E)
Time: 07:45:06
(UTC+00:00)

Cosmos 1544 Rocket - Pass Details

Date: 16 June 2021
Orbit: 603 x 631 km, 82.5° (Epoch: 02 August)

Event Time Altitude Azimuth Distance (km) Brightness Sun altitude
Rises 21:58:12 0° 345° (NNW) 2,939 8.9 -12.6°
Reaches altitude 10° 22:00:30 10° 339° (NNW) 2,025 7.7 -12.8°
Maximum altitude 22:04:48 46° 267° (W) 851 4.4 -13.1°
Enters shadow 22:08:32 13° 196° (SSW) 1,810 5.5 -13.3°
